Weather in Silifke

Turkey     36°22′31″N   33°56′14″E
temp.,
°C
wind,
m/s
gust,
m/s
humid.,
%
clouds,
%
prec.,
mm/h
press.,
hPa
HPBL,
m
8 august, mon
mon800:00+23ne33810 0.0 100489
03:00+22ne34903 0.0 1005115
06:00+21ne119416 0.0 100622
09:00+25se217569 0.1 1006753
12:00+27sse426652 0.0 1006819
15:00+29s65530 0.0 1006907
18:00+27ssw43470 0.0 1006671
21:00+23s11720 0.0 100750
9 august, tue
tue900:00+22ne22790 0.0 100841
03:00+21nne22796 0.0 100815
06:00+20nne11862 0.0 100811
09:00+24sse21676 0.0 1008652
12:00+28sse535513 0.0 10071116
15:00+28s65568 0.0 1006966
18:00+27s44440 0.0 1006769
21:00+22sw11740 0.0 100757
10 august, wed
wed1000:00+21ne22740 0.0 100656
03:00+21nne33760 0.0 100655
06:00+20nne11720 0.0 100512
09:00+25sse21590 0.0 1006711
12:00+28sse43530 0.0 10051128
15:00+29s64551 0.0 10041032
18:00+27s43590 0.0 1004751
21:00+23sw11870 0.0 100567
11 august, thu
thu1100:00+23nne228357 0.0 100544
03:00+21ne229427 0.0 100552
06:00+21nne11850 0.0 100515
09:00+26s22570 0.0 1005850
12:00+30sse64527 0.0 10051277
15:00+29s54573 0.0 1005968
18:00+27s33580 0.1 1006703
21:00+24w11810 0.2 100641
12 august, fri
fri1200:00+23ne33840 0.0 100782
03:00+22ne22870 0.0 100635
06:00+21ne11911 0.0 100726
09:00+27s32593 0.0 1007768
12:00+30sse535613 0.0 10071106
15:00+30s54580 0.0 1006817
18:00+28s33540 0.0 1006599
21:00+24wnw01740 0.0 100738